Wetbulb
74.96 75.49 75.34 73.95 72.76 68.21 69.73 66.56 66.95 68.40 68.95 70.00 69.52 69.51 69.71 69.71 69.85 69.61 69.34 68.88 68.39 68.71 68.59 68.27 68.37 68.86 67.15 67.03 67.04 66.14 64.79 63.62 60.64 61.90 63.60 64.62 64.51 64.80 65.56 66.55 66.05 65.43 64.48
74.95 75.01 73.60 71.67 67.16 70.02 68.59 68.26 67.67 67.41 68.13 68.28 68.70 69.20 69.38 69.61 69.67 69.17 68.53 67.76 67.88 67.54 67.48 68.08 67.83 67.35 67.97 69.21 67.88 67.09 65.72 65.63 62.76 61.22 64.04 63.97 64.67 65.68 65.54 65.35 64.93 64.79 64.61
74.61 73.32 72.16 67.06 69.12 67.87 66.98 67.42 66.66 67.15 66.70 66.93 67.75 68.39 68.37 69.08 68.80 69.22 68.71 68.12 67.69 67.13 67.79 67.73 67.67 67.82 67.23 67.87 67.47 66.08 65.28 65.34 64.19 61.20 61.51 63.47 63.94 64.24 63.49 64.48 64.47 64.71 64.52
73.98 72.85 70.81 68.43 69.25 68.62 67.92 66.27 64.70 65.77 65.41 66.21 66.91 67.49 68.32 68.78 68.76 68.26 68.09 68.05 68.13 67.92 68.17 68.35 68.11 67.13 66.94 67.37 67.08 66.70 66.22 65.12 64.61 60.59 60.82 61.61 62.39 63.86 62.96 61.20 61.06 62.89 62.43
73.84 72.54 71.20 68.95 69.81 69.19 68.85 67.43 64.24 64.88 65.47 66.77 66.18 66.86 67.78 67.95 67.63 68.00 67.89 68.23 68.71 68.18 68.51 68.44 67.91 67.20 65.48 64.75 64.81 65.27 65.46 63.90 62.64 61.72 61.12 61.32 61.09 60.90 60.38 61.38 60.16 61.28 62.50
73.05 72.06 71.01 68.98 69.51 69.07 68.44 68.02 66.83 64.62 65.79 66.69 66.03 65.94 67.08 67.16 63.35 63.02 66.57 68.39 68.89 68.08 67.38 67.98 68.05 65.16 64.49 62.88 62.41 62.82 63.47 63.62 62.92 62.32 60.95 60.36 59.99 61.03 61.27 60.43 59.70 58.21 56.88
72.79 71.85 69.41 69.36 69.26 68.68 67.86 67.61 67.46 66.84 66.93 66.47 66.54 66.89 67.57 67.54 62.05 61.76 63.82 68.18 68.69 68.33 67.92 67.67 66.75 65.53 63.43 64.20 62.29 60.98 61.01 61.17 61.66 62.25 59.96 60.03 60.40 61.18 60.82 58.84 58.32 57.82 57.56
72.07 70.62 69.78 69.35 68.95 68.98 67.97 67.22 67.86 68.05 66.35 66.83 67.30 68.14 67.92 68.36 61.17 60.26 62.19 67.40 67.77 68.25 68.27 67.84 66.55 65.47 64.16 62.46 62.40 62.30 62.90 62.95 63.08 61.86 61.62 60.84 60.94 60.67 59.77 58.49 57.01 57.42 59.47
71.30 70.10 69.89 69.43 68.83 68.01 67.11 66.92 68.16 68.05 67.27 67.13 67.88 68.17 68.11 68.66 58.63 58.62 60.20 64.20 63.40 63.80 66.34 65.58 63.97 63.30 60.18 57.14 60.70 61.03 61.33 61.37 59.98 56.75 56.51 56.27 56.45 56.70 57.23 56.05 54.77 56.82 56.13
71.36 70.51 70.17 69.53 68.78 67.45 67.38 67.47 68.38 68.13 67.68 67.37 67.25 67.95 65.37 68.06 58.09 56.77 59.72 61.39 61.18 61.74 62.14 61.32 57.80 60.25 55.21 54.58 59.88 60.29 58.98 59.51 59.09 58.73 59.17 58.80 58.70 59.35 58.09 58.54 57.22 55.49 56.44
71.88 70.91 69.78 69.17 68.28 68.30 68.08 68.16 68.06 67.63 67.38 67.48 67.25 67.84 66.64 66.38 62.63 55.52 55.50 60.31 60.61 59.92 60.52 61.68 61.93 54.27 52.09 51.37 51.81 59.24 57.71 55.90 56.53 57.17 57.43 57.75 58.33 59.11 59.42 60.02 59.63 58.07 56.50
69.99 69.62 68.89 69.02 68.02 67.92 68.08 68.11 68.31 67.82 67.55 67.48 66.44 63.58 66.46 67.29 57.93 55.42 54.45 54.97 59.96 61.88 62.59 62.45 60.53 51.25 49.94 50.34 52.15 51.83 51.42 51.92 56.24 56.06 55.65 55.40 55.81 56.26 57.22 57.53 57.60 58.00 59.15
70.39 69.06 67.75 67.71 68.18 67.93 67.49 68.02 67.35 67.80 67.35 66.52 62.77 63.21 64.18 64.22 63.16 52.83 51.62 52.02 53.96 60.43 61.61 56.80 51.17 48.21 48.75 50.67 50.44 50.08 49.67 55.41 54.66 53.76 53.74 53.83 54.31 55.16 56.03 55.95 57.20 58.79 59.12
68.73 68.44 68.24 68.14 67.59 68.03 67.30 67.26 66.30 65.52 65.12 63.22 62.97 62.84 62.81 61.68 61.87 58.85 57.73 57.71 53.45 56.07 53.13 57.19 54.47 53.55 49.90 50.90 52.90 53.73 54.60 53.84 52.14 51.58 51.67 52.52 53.61 53.37 52.49 53.52 54.12 54.68 54.66
67.94 67.86 67.34 66.18 65.42 62.02 58.31 58.67 62.98 63.25 59.05 62.95 63.23 62.72 61.48 62.28 61.60 55.67 56.07 59.42 59.77 54.92 55.36 57.88 57.01 56.53 56.42 56.26 54.93 53.86 53.25 52.39 50.84 50.57 50.49 50.57 50.59 50.57 50.52 52.41 53.95 54.55 53.08
65.87 65.40 64.94 64.47 62.59 60.53 58.42 55.77 44.28 44.18 43.60 44.84 46.09 57.04 58.79 48.54 44.54 44.37 43.71 42.98 43.17 43.80 54.52 56.11 56.22 56.28 55.33 53.79 52.52 51.58 51.71 49.59 49.81 49.27 49.60 49.28 48.65 48.68 48.99 50.99 52.77 51.14 52.47
64.06 63.28 63.01 62.35 61.78 59.52 58.74 59.03 57.09 48.41 42.59 41.27 41.50 42.87 45.03 44.36 41.78 40.61 40.56 39.83 40.08 43.47 54.71 55.25 55.44 54.55 53.37 51.88 50.17 49.24 48.70 48.98 49.04 48.54 48.35 48.46 48.40 48.27 48.57 49.80 51.66 48.40 52.29
62.75 54.78 62.48 62.48 62.51 60.64 59.72 60.93 60.07 57.87 55.92 53.65 43.82 45.78 41.06 40.92 40.45 40.53 41.08 44.20 51.60 50.96 55.52 54.68 53.21 51.38 50.24 50.24 49.05 47.70 46.98 47.61 47.82 47.65 47.71 47.96 48.09 47.70 48.03 48.60 50.99 50.27 50.81
63.43 62.92 62.15 61.95 62.63 60.65 61.30 60.05 59.52 58.57 57.09 55.28 53.44 48.27 45.64 40.51 40.74 41.92 42.60 54.03 53.00 52.85 52.68 51.62 50.82 49.94 50.26 50.01 48.01 46.46 45.74 46.62 45.92 46.94 47.16 47.31 47.60 47.43 47.29 48.10 50.65 47.97 48.39
63.39 59.11 60.77 63.40 61.09 61.33 60.48 59.60 58.51 57.75 56.53 56.13 56.15 56.08 54.52 51.62 53.43 53.52 53.92 53.61 52.98 52.58 51.20 49.92 49.79 50.44 50.34 48.04 46.31 45.42 46.78 47.42 47.16 46.77 46.67 47.15 47.46 47.43 46.97 47.22 49.65 48.92 49.27
64.27 62.98 59.05 62.49 62.20 61.54 60.83 59.80 59.11 58.14 57.39 57.19 57.49 55.84 48.82 55.16 53.78 53.11 52.50 52.33 52.32 51.80 51.04 50.99 50.81 50.60 48.63 47.04 46.72 47.58 47.74 47.71 46.71 46.11 46.23 46.63 47.12 46.41 47.41 47.57 48.11 49.23 47.90
62.81 62.55 62.21 62.12 61.75 60.69 60.38 60.22 59.44 58.93 58.22 57.58 57.05 54.23 43.14 53.94 54.63 53.34 52.90 52.62 53.01 53.28 53.40 52.51 51.08 48.94 47.08 46.43 47.06 47.67 47.14 46.20 46.07 45.48 45.74 46.30 46.90 46.85 47.08 47.10 47.11 48.25 49.59
63.02 62.31 61.84 61.55 61.39 57.16 59.08 60.11 59.36 58.19 57.29 55.87 56.53 56.00 53.96 54.71 53.99 52.98 52.49 53.13 53.15 52.52 52.22 50.17 48.86 47.06 46.02 45.77 47.10 47.24 46.27 45.04 44.74 45.18 44.90 45.70 46.36 45.98 46.67 46.43 46.52 46.66 47.34
61.97 62.03 61.53 61.03 60.06 59.71 59.95 59.37 58.90 53.39 55.54 54.92 56.75 56.38 56.20 56.12 55.02 53.04 52.52 52.70 51.88 51.27 49.99 48.75 48.13 45.97 43.93 44.02 46.35 46.92 46.76 45.98 45.56 45.72 45.15 45.40 46.09 45.73 46.34 46.27 46.34 46.47 46.78
60.96 60.76 60.40 60.08 59.54 59.21 58.98 59.01 58.05 56.64 55.24 57.02 56.05 55.97 56.35 56.10 55.33 53.83 52.60 52.40 51.70 50.27 48.81 47.76 46.98 44.71 42.26 42.08 42.77 42.78 37.17 29.47 38.82 34.34 45.66 46.02 46.00 46.29 45.93 45.89 45.92 46.11 46.42
57.81 58.89 59.70 59.99 59.40 59.13 58.99 58.37 57.63 57.70 57.39 55.97 55.99 55.92 55.92 55.46 55.12 54.57 52.92 52.25 51.19 50.10 48.77 47.29 46.11 43.60 41.88 42.28 41.66 36.23 29.80 29.45 37.99 31.00 43.33 46.57 46.06 45.44 45.46 45.05 45.02 45.00 45.58
MSLP
1008.92 1009.80 1010.80 1011.70 1012.85 1014.00 1014.33 1015.05 1014.93 1016.17 1016.65 1017.08 1017.25 1017.26 1017.46 1017.48 1017.81 1018.08 1018.14 1018.22 1018.37 1018.33 1018.49 1018.46 1018.42 1018.36 1018.23 1018.18 1018.31 1018.74 1018.65 1018.70 1018.05 1016.88 1016.96 1017.40 1017.32 1017.13 1016.78 1016.60 1016.40 1015.99 1015.53
1007.65 1008.93 1010.14 1011.52 1012.27 1012.34 1014.16 1015.43 1015.32 1015.77 1016.35 1016.91 1017.16 1017.09 1017.15 1017.25 1017.49 1017.85 1017.91 1018.01 1018.00 1018.01 1017.53 1017.69 1017.85 1017.80 1017.78 1017.59 1017.67 1017.85 1017.91 1017.96 1018.08 1017.08 1016.51 1016.49 1016.46 1016.09 1016.24 1016.03 1015.74 1015.31 1014.88
1007.28 1008.62 1009.95 1010.89 1011.35 1012.19 1012.79 1013.63 1016.05 1016.12 1015.93 1016.58 1016.76 1016.73 1016.80 1016.99 1017.01 1017.19 1017.30 1017.41 1017.53 1017.44 1017.12 1017.11 1017.14 1017.25 1017.18 1017.21 1017.07 1017.01 1016.99 1017.14 1017.21 1017.45 1016.35 1015.92 1015.82 1015.67 1015.38 1015.22 1014.94 1014.65 1014.36
1006.77 1008.15 1009.39 1010.22 1010.62 1011.23 1012.52 1012.88 1013.76 1013.36 1015.12 1015.06 1015.05 1015.65 1016.12 1016.34 1016.37 1016.46 1016.68 1016.67 1016.83 1016.71 1016.53 1016.63 1016.72 1016.59 1016.50 1016.63 1016.84 1016.76 1016.76 1016.60 1016.50 1016.78 1016.42 1015.43 1014.95 1014.79 1014.74 1014.28 1013.56 1013.32 1013.10
1006.36 1007.61 1008.45 1009.27 1009.92 1010.76 1011.30 1011.43 1012.07 1012.71 1013.44 1014.27 1014.26 1015.06 1015.48 1015.66 1015.56 1015.83 1016.04 1015.95 1016.01 1015.98 1015.88 1016.11 1016.31 1016.33 1016.37 1016.16 1016.39 1016.14 1016.20 1016.01 1015.64 1015.44 1015.05 1014.40 1013.91 1013.67 1013.53 1013.44 1013.00 1012.50 1012.15
1006.03 1006.89 1007.72 1008.56 1009.06 1009.76 1010.44 1010.81 1011.08 1011.88 1012.04 1012.87 1013.50 1014.10 1014.46 1014.55 1014.79 1015.31 1015.43 1015.38 1015.29 1015.28 1015.16 1015.36 1015.56 1015.89 1016.07 1016.00 1016.17 1015.97 1015.95 1015.70 1015.37 1015.13 1014.40 1014.09 1014.24 1013.96 1013.14 1013.07 1012.76 1011.96 1010.92
1005.57 1006.42 1007.44 1008.05 1008.44 1008.94 1009.62 1010.47 1011.09 1011.46 1012.53 1012.43 1012.58 1013.11 1013.41 1013.86 1014.29 1014.32 1014.89 1014.89 1014.79 1014.78 1014.78 1015.05 1015.08 1015.17 1015.71 1015.57 1015.50 1015.42 1015.37 1015.29 1015.24 1015.07 1014.79 1014.49 1013.94 1013.67 1013.41 1013.20 1013.04 1012.22 1011.21
1005.22 1006.27 1007.11 1007.72 1008.33 1009.01 1009.49 1009.71 1010.38 1011.10 1011.63 1011.70 1011.80 1012.20 1012.75 1012.93 1013.34 1014.02 1014.65 1014.76 1014.75 1014.65 1014.37 1014.49 1014.72 1014.94 1015.20 1015.41 1015.35 1014.84 1014.56 1014.45 1014.69 1014.37 1014.18 1014.09 1013.86 1013.55 1013.48 1013.12 1012.86 1012.03 1010.90
1004.88 1005.76 1006.51 1007.06 1007.52 1008.28 1008.90 1009.24 1009.96 1010.69 1010.99 1011.15 1011.36 1011.74 1012.17 1012.44 1013.25 1014.06 1014.54 1015.09 1015.21 1014.85 1014.33 1014.55 1014.53 1014.65 1014.97 1015.42 1015.10 1014.59 1014.26 1013.86 1013.98 1014.36 1014.28 1014.05 1013.62 1013.11 1013.19 1012.99 1011.98 1010.77 1009.21
1004.12 1004.84 1005.39 1006.63 1007.36 1007.93 1008.58 1009.19 1009.87 1010.50 1010.83 1010.78 1011.04 1011.43 1011.39 1011.50 1012.12 1012.57 1012.66 1014.39 1015.13 1014.86 1014.93 1014.70 1014.63 1014.61 1014.96 1015.14 1014.89 1014.36 1014.11 1013.71 1013.91 1013.60 1013.21 1013.00 1012.48 1011.81 1011.85 1011.82 1011.11 1010.23 1008.74
1003.12 1003.91 1004.98 1005.31 1006.85 1007.55 1008.42 1009.03 1009.47 1009.85 1010.12 1010.22 1010.55 1010.71 1010.95 1011.21 1011.88 1011.69 1012.32 1013.37 1014.05 1014.42 1014.29 1014.00 1014.00 1014.48 1014.82 1014.98 1014.91 1014.36 1014.27 1014.34 1013.85 1013.32 1012.64 1012.05 1011.73 1011.14 1010.75 1010.52 1010.42 1009.79 1008.59
1003.73 1003.59 1004.41 1005.34 1006.42 1007.17 1007.86 1008.72 1008.94 1009.28 1009.67 1009.84 1010.14 1010.40 1010.44 1010.92 1011.37 1011.73 1012.36 1013.01 1013.47 1013.59 1013.33 1013.26 1013.71 1014.34 1014.60 1014.82 1014.77 1014.53 1014.55 1014.23 1013.19 1012.66 1012.22 1011.55 1011.24 1010.75 1010.34 1010.08 1009.68 1008.95 1008.18
1004.83 1003.93 1004.34 1005.34 1006.15 1006.59 1007.47 1008.14 1008.69 1008.97 1009.33 1009.70 1009.77 1009.91 1009.95 1010.84 1011.40 1011.98 1012.23 1012.36 1012.98 1013.16 1013.13 1013.34 1013.85 1014.13 1014.28 1014.45 1014.48 1014.41 1014.13 1013.31 1012.95 1012.67 1012.03 1011.49 1011.15 1010.77 1010.41 1009.54 1008.77 1008.00 1007.24
1004.37 1004.42 1004.97 1005.55 1006.21 1006.78 1007.25 1008.01 1008.64 1008.96 1009.15 1009.22 1009.45 1009.68 1010.25 1010.83 1011.25 1011.71 1011.92 1012.43 1012.99 1013.12 1013.53 1013.40 1013.56 1013.63 1013.95 1013.95 1013.86 1013.64 1013.41 1013.26 1013.17 1012.67 1012.06 1011.61 1010.92 1010.36 1009.66 1009.07 1008.24 1007.73 1006.88
1004.43 1005.46 1005.71 1006.16 1006.54 1007.38 1008.37 1009.12 1009.00 1009.05 1009.65 1009.66 1009.79 1010.06 1010.35 1010.27 1010.59 1011.04 1011.43 1011.97 1012.35 1012.82 1012.96 1012.88 1012.80 1012.85 1012.98 1013.06 1013.08 1013.19 1013.18 1013.21 1012.91 1012.46 1011.96 1011.29 1010.63 1010.10 1009.41 1008.93 1008.14 1007.48 1006.78
1005.50 1005.83 1006.27 1006.57 1007.05 1007.86 1008.30 1009.07 1010.32 1010.32 1009.94 1010.22 1010.38 1010.35 1011.22 1011.06 1011.45 1011.89 1012.24 1012.57 1012.70 1012.85 1012.89 1012.30 1012.20 1012.40 1012.62 1012.89 1012.88 1012.88 1012.88 1013.15 1012.79 1012.49 1011.80 1011.22 1010.69 1010.09 1009.41 1008.79 1008.17 1007.69 1006.57
1005.64 1005.75 1006.11 1006.71 1007.49 1007.98 1008.51 1008.90 1009.72 1011.10 1010.84 1010.91 1010.96 1010.89 1010.71 1011.47 1011.65 1011.88 1012.22 1012.59 1012.69 1012.87 1012.34 1012.07 1012.00 1012.44 1012.68 1012.89 1012.93 1012.92 1012.78 1012.87 1013.06 1012.19 1011.72 1011.25 1010.84 1010.19 1009.45 1008.77 1008.02 1007.90 1006.43
1005.84 1006.01 1006.27 1006.80 1007.02 1007.97 1008.39 1008.28 1008.75 1009.27 1009.96 1010.86 1011.44 1011.42 1011.68 1011.95 1012.31 1012.61 1012.80 1012.67 1012.89 1012.62 1012.12 1011.91 1012.21 1012.52 1012.81 1012.89 1013.01 1013.05 1012.94 1012.67 1012.42 1012.08 1011.68 1011.25 1010.85 1010.27 1009.43 1008.80 1008.08 1007.83 1006.87
1005.49 1005.48 1006.06 1006.69 1007.19 1007.71 1007.98 1008.16 1008.32 1008.77 1009.25 1010.00 1010.84 1011.62 1012.02 1012.25 1012.41 1012.52 1012.56 1012.11 1012.04 1012.06 1012.22 1012.45 1012.62 1012.70 1012.88 1013.03 1013.16 1013.27 1013.18 1012.71 1012.79 1012.22 1011.67 1011.32 1010.90 1010.22 1009.47 1008.89 1008.15 1007.71 1007.24
1005.11 1005.72 1006.27 1006.71 1007.25 1007.47 1007.65 1007.49 1007.91 1008.67 1009.39 1009.65 1010.12 1010.57 1011.21 1011.70 1011.78 1011.77 1011.84 1011.96 1012.00 1011.88 1012.26 1012.47 1012.81 1012.98 1013.10 1013.26 1013.28 1013.16 1012.85 1012.77 1012.50 1012.11 1011.82 1011.52 1011.06 1010.28 1009.64 1008.95 1008.23 1007.75 1007.17
1005.01 1005.53 1005.97 1006.38 1006.58 1006.81 1007.27 1007.40 1007.73 1008.17 1008.75 1009.18 1009.46 1009.99 1010.65 1010.93 1010.88 1011.11 1011.39 1011.58 1011.70 1011.81 1012.24 1012.35 1012.66 1012.95 1013.19 1013.28 1013.13 1013.00 1013.01 1012.83 1012.64 1012.37 1012.08 1011.73 1011.20 1010.41 1009.80 1009.14 1008.47 1007.84 1007.50
1005.27 1005.69 1005.70 1005.96 1006.38 1006.64 1007.02 1007.15 1007.47 1007.88 1008.33 1008.77 1009.22 1010.27 1011.26 1010.82 1010.66 1010.90 1011.05 1011.22 1011.54 1011.80 1012.03 1012.38 1012.55 1012.90 1013.17 1013.22 1013.23 1013.16 1013.09 1012.90 1012.79 1012.75 1012.45 1011.95 1011.29 1010.67 1010.04 1009.37 1008.84 1008.15 1007.61
1005.06 1005.53 1005.81 1006.13 1006.40 1006.79 1006.94 1006.90 1007.28 1007.89 1008.36 1008.70 1008.90 1009.50 1010.22 1010.22 1010.33 1010.55 1010.80 1011.08 1011.43 1011.70 1012.13 1012.45 1012.76 1013.06 1013.40 1013.47 1013.50 1013.51 1013.35 1013.21 1013.33 1013.31 1012.80 1012.15 1011.44 1011.05 1010.27 1009.69 1009.27 1008.72 1008.25
1005.16 1005.31 1005.66 1006.06 1006.38 1006.49 1006.70 1007.07 1007.26 1007.79 1008.13 1008.50 1008.52 1008.80 1009.13 1009.39 1009.72 1010.16 1010.50 1010.93 1011.34 1011.69 1012.12 1012.42 1012.67 1012.95 1013.28 1013.40 1013.48 1013.60 1013.70 1013.69 1013.68 1013.31 1013.13 1012.41 1011.63 1011.20 1010.59 1010.06 1009.65 1009.36 1008.69
1005.25 1005.50 1005.63 1005.88 1006.19 1006.46 1006.71 1006.67 1006.86 1007.41 1007.79 1007.66 1007.84 1008.12 1008.39 1008.69 1009.10 1009.66 1010.13 1010.54 1011.06 1011.53 1011.93 1012.27 1012.54 1012.89 1013.23 1013.40 1013.45 1013.61 1014.06 1014.51 1014.30 1014.12 1012.91 1012.39 1011.92 1011.52 1011.07 1010.47 1010.17 1009.74 1009.43
1005.33 1005.45 1005.57 1005.79 1005.97 1006.16 1006.24 1006.34 1006.58 1006.79 1006.87 1006.97 1007.28 1007.53 1007.72 1008.10 1008.58 1009.12 1009.66 1010.08 1010.63 1011.07 1011.49 1011.95 1012.32 1012.74 1013.03 1013.24 1013.48 1013.88 1014.31 1014.44 1014.09 1014.09 1013.26 1012.36 1011.97 1011.61 1011.27 1011.01 1010.71 1010.20 1009.94
Wind_Speed
17 16 15 14 11 8 9 6 8 5 6 7 8 9 10 9 8 8 7 7 8 7 7 8 9 8 7 7 7 7 8 8 10 11 9 8 11 11 10 10 11 11 11
17 16 14 11 13 15 9 6 7 5 5 6 7 9 10 9 8 8 8 7 9 10 8 8 9 7 10 9 7 9 9 9 10 14 12 10 12 11 12 13 12 11 11
16 16 14 14 16 14 13 13 5 4 2 7 8 10 9 10 9 9 10 10 10 9 8 8 9 8 10 9 9 8 9 8 9 10 13 11 10 10 12 13 12 13 12
16 15 15 16 15 15 14 14 13 11 12 13 11 9 9 10 10 11 10 10 11 9 9 9 10 9 9 9 7 9 10 9 9 8 10 11 10 9 9 12 12 11 12
15 15 16 17 16 16 17 16 14 14 12 9 10 10 12 12 10 12 12 11 10 10 9 9 10 10 10 9 7 9 9 9 10 9 11 11 11 10 11 12 13 13 13
15 16 16 18 18 19 17 16 15 14 15 12 11 12 14 11 10 13 13 10 10 10 9 10 9 9 11 10 11 12 10 11 12 10 11 12 12 13 11 12 13 14 15
15 15 18 18 18 19 17 16 16 16 13 13 12 12 15 11 14 15 13 10 9 10 9 10 9 6 5 7 7 9 11 10 12 10 10 11 14 15 13 15 15 13 13
14 15 16 17 17 16 17 19 17 13 15 14 14 14 13 12 11 11 7 8 8 11 10 9 8 8 5 5 8 9 9 7 8 7 9 11 12 14 14 12 13 14 15
14 15 16 17 18 18 18 17 14 12 13 14 12 12 12 10 6 6 3 4 7 10 8 7 7 7 2 5 8 9 9 8 4 10 11 14 16 18 17 10 12 13 15
14 15 17 16 16 17 17 16 11 11 12 11 12 10 13 13 13 15 10 4 7 6 4 6 7 6 2 5 7 6 7 7 8 11 12 11 11 12 13 12 11 11 15
14 14 14 15 15 14 12 11 11 10 12 11 14 9 7 9 8 13 15 6 7 7 8 8 5 5 6 6 4 5 6 8 10 10 10 9 10 10 9 9 11 12 13
10 15 13 12 11 11 12 10 10 10 12 11 8 4 5 5 3 5 7 10 9 10 9 4 3 4 7 5 6 2 6 8 7 8 8 8 9 10 10 12 15 15 13
12 11 11 11 11 10 11 11 9 11 9 8 6 5 4 4 4 4 6 7 8 7 4 2 3 3 5 7 2 3 7 5 6 8 8 8 9 10 13 13 14 16 17
8 8 10 10 10 7 6 6 6 6 7 5 4 5 4 4 5 6 6 6 6 5 5 3 2 3 2 1 4 3 4 5 6 7 8 9 8 9 11 11 12 12 12
8 8 8 7 8 7 6 3 0 3 2 3 4 3 5 6 5 5 4 4 3 2 2 3 4 4 4 3 3 3 4 4 5 6 7 8 9 10 11 11 11 11 10
8 7 5 5 6 5 5 6 13 8 8 5 5 2 4 11 11 9 5 5 7 8 4 4 4 3 3 3 3 4 3 4 5 6 7 8 9 10 10 12 10 10 11
7 7 6 5 6 5 5 5 6 7 12 10 8 8 10 10 9 9 8 9 7 6 6 4 3 3 3 3 3 4 5 4 6 6 7 8 9 10 11 10 10 8 11
7 6 5 5 5 5 5 5 6 8 8 7 5 6 8 10 9 9 9 9 4 5 3 3 3 3 2 2 3 4 4 4 5 5 6 7 8 9 10 10 10 10 11
4 4 5 4 4 5 6 6 6 7 8 8 7 4 7 8 8 6 2 2 3 3 3 3 2 2 2 2 3 4 4 4 5 5 5 7 8 9 10 10 10 9 10
4 5 3 4 5 5 6 6 7 6 6 7 7 7 7 5 5 4 2 2 2 2 3 3 3 1 1 2 3 3 3 2 3 4 5 6 7 8 9 11 10 11 11
3 5 3 5 5 5 5 6 6 7 8 7 7 7 8 7 6 5 4 4 3 3 4 3 2 1 2 2 2 1 2 2 3 5 5 6 7 8 9 9 9 9 9
4 4 5 4 4 5 6 6 6 6 6 7 6 7 6 6 3 4 4 4 3 3 2 2 1 1 2 1 0 1 1 3 4 5 5 6 7 8 8 9 10 9 9
4 5 4 4 4 5 5 6 6 5 6 6 6 7 8 7 5 4 4 3 3 3 3 3 2 2 2 2 1 1 2 4 4 4 6 6 6 7 8 8 9 9 9
4 3 3 4 5 5 6 7 7 7 7 7 7 6 6 6 6 6 5 4 4 4 4 3 2 1 3 3 2 2 1 3 4 4 6 6 6 7 7 8 8 10 9
3 3 4 4 5 5 7 8 7 7 8 8 6 5 5 6 6 6 6 5 5 5 5 4 3 3 4 4 4 4 5 2 7 8 5 5 6 7 7 7 8 8 10
3 3 2 3 4 4 5 6 7 8 8 6 5 6 6 6 5 6 7 7 6 6 6 5 4 4 5 5 5 2 2 3 5 5 7 3 4 5 5 7 9 7 9
Wind_Direction
201 199 200 197 175 139 168 199 153 182 183 205 199 204 209 206 211 217 233 241 236 243 239 240 246 246 253 248 237 247 249 246 268 287 285 270 281 284 295 291 286 286 280
199 196 192 164 149 166 187 188 151 153 167 213 218 220 218 216 217 224 237 245 239 241 237 236 252 248 245 246 236 246 252 250 259 271 286 286 273 289 290 291 287 287 285
197 194 184 169 170 168 168 146 143 151 173 221 222 226 220 226 220 222 228 237 240 243 249 253 260 264 261 264 249 253 255 250 247 261 279 288 290 295 298 286 284 287 281
199 193 182 176 172 170 163 147 166 146 209 209 207 216 218 225 225 229 225 228 241 245 246 250 255 251 255 265 268 265 265 266 265 253 265 278 279 284 281 284 284 283 289
188 186 184 180 175 169 173 170 174 187 211 217 197 211 220 225 225 224 230 230 238 247 250 252 245 255 258 260 266 274 281 269 271 270 270 279 282 290 296 299 294 290 289
183 189 179 179 175 184 182 184 182 200 210 201 200 210 221 223 211 222 232 233 239 246 255 256 248 232 243 247 252 257 269 270 275 280 285 291 295 285 294 294 296 293 293
185 181 181 185 187 189 185 185 198 213 220 218 211 215 226 220 220 225 219 240 249 248 254 260 263 256 242 269 262 251 249 237 253 277 280 276 290 297 306 298 289 282 281
179 180 189 190 194 190 190 196 203 214 221 223 223 220 225 224 210 208 211 247 259 261 254 259 262 270 259 268 279 279 286 282 269 264 282 287 290 300 299 291 283 279 278
178 187 194 195 192 187 197 200 204 210 229 229 231 226 227 243 118 89 129 326 304 288 277 246 231 253 262 238 272 280 286 287 228 227 252 269 272 275 276 284 277 284 291
183 189 189 197 198 197 199 203 205 212 232 237 231 212 213 214 178 173 125 150 273 270 264 246 224 254 237 223 261 273 281 302 310 311 307 296 285 291 276 269 281 280 290
184 179 186 184 198 201 199 201 196 197 220 214 217 219 223 221 164 146 156 169 216 245 241 232 218 192 213 198 243 266 301 321 301 296 300 306 307 305 301 301 298 289 292
171 171 168 179 190 193 191 203 212 209 216 216 219 201 205 199 199 160 178 202 226 248 248 235 180 181 194 206 240 11 301 293 296 301 301 306 311 312 312 311 305 293 287
195 158 152 178 182 179 189 203 203 204 217 217 194 216 203 181 185 196 210 178 189 227 246 83 99 215 194 210 180 311 287 298 307 298 305 309 313 312 306 301 304 304 299
151 153 169 172 179 183 184 196 201 206 213 210 201 202 172 191 189 161 153 159 150 201 170 192 41 74 25 316 256 254 314 313 312 302 309 309 312 312 314 318 313 313 308
137 163 155 145 141 114 91 49 293 93 329 217 215 206 199 198 167 125 116 170 192 99 211 202 209 216 237 266 295 306 307 303 300 314 310 318 321 318 318 322 319 315 309
143 151 149 143 129 136 136 111 49 28 23 352 328 324 77 70 97 106 122 117 118 152 221 241 231 232 257 289 301 312 297 298 323 314 319 326 322 322 325 319 321 331 318
138 132 141 159 148 150 146 163 141 84 74 62 82 91 95 123 110 108 104 119 144 169 240 237 238 234 260 277 296 303 309 327 307 320 329 327 324 322 324 326 325 325 330
104 90 146 169 161 158 176 170 154 153 143 128 51 69 87 98 105 111 127 161 160 220 243 225 218 210 230 264 301 310 309 318 329 335 331 333 328 330 329 330 330 334 334
87 117 150 174 178 161 165 157 152 148 147 141 134 124 108 107 119 124 175 289 285 253 230 233 221 205 218 278 312 302 305 339 333 331 339 337 334 334 337 335 333 333 336
109 115 140 153 157 165 164 160 153 151 151 157 171 163 156 170 178 171 168 179 213 207 184 185 184 203 282 307 308 313 308 318 347 343 343 337 338 336 341 340 342 348 345
166 146 145 166 170 158 164 166 165 169 175 179 177 168 177 194 180 175 174 176 191 172 183 181 165 243 257 292 317 308 313 346 358 347 337 337 339 342 344 344 345 352 356
160 160 174 177 166 170 176 167 171 178 181 182 170 151 168 233 202 185 176 170 177 183 186 183 189 303 303 290 239 299 2 5 4 349 335 334 341 347 347 350 353 356 2
172 174 178 175 174 156 178 173 166 177 182 189 185 179 185 212 203 189 176 180 181 167 156 171 167 190 182 185 179 24 351 17 2 336 329 334 342 354 350 357 359 357 0
155 169 186 184 182 185 182 177 180 188 183 196 198 201 205 209 202 186 184 177 169 159 166 172 178 203 171 198 193 213 302 356 329 321 324 333 344 352 359 3 6 11 6
149 166 180 176 180 195 189 201 194 192 203 203 200 202 206 206 197 190 187 181 174 174 175 177 183 178 198 211 233 246 77 354 299 328 306 336 354 357 9 13 7 16 21
106 127 154 179 192 201 208 210 212 209 216 212 219 215 209 201 202 198 195 190 186 183 177 181 181 195 192 203 223 78 55 297 299 303 301 350 357 15 10 17 17 18 28